Regional Weather Roundup
Issued by NWS Newport/Morehead, NC

Home | Current Version | Previous Version | Text Only | Print | Product List | Glossary On
Versions: 1 2 3 4 5 6 7 8 9 10 11 12 13 14 15 16 17 18 19 20 21 22 23 24 25 26 27 28 29 30 31 32 33 34 35 36 37 38 39 40 41 42 43 44 45 46 47 48 49 50
000
ASUS42 KMHX 301025
RWRMHX
WEATHER ROUNDUP FOR EASTERN NORTH CAROLINA
NATIONAL WEATHER SERVICE NEWPORT/MOREHEAD CITY NC
600 AM EDT THU JUL 30 2015

NOTE: "FAIR" INDICATES FEW OR NO CLOUDS BELOW 12,000 FEET
WITH NO SIGNIFICANT WEATHER AND/OR OBSTRUCTIONS TO VISIBILITY

NCZ015>017-031-032-045>047-102-103-301100-
NORTH COAST

CITY           SKY/WX    TMP DP  RH WIND       PRES   REMARKS
EDENTON        CLEAR     70  69  96 CALM      29.95R
ELIZABETH CITY CLEAR     71  71 100 CALM      29.95S FOG
KITTY HAWK     SUNNY     77  74  89 CALM      29.93S
MANTEO         PTCLDY    77  75  95 NE3       29.94S

$$

NCZ045>047-081-094-103-104-301100-
CENTRAL COAST

CITY           SKY/WX    TMP DP  RH WIND       PRES   REMARKS
FRISCO         MOCLDY    78  75  90 CALM      29.93S
SWANQUARTER      N/A     77 N/A N/A NE1       29.88S

$$

NCZ095-097-098-100-101-301100-
SOUTHERN COAST

CITY           SKY/WX    TMP DP  RH WIND       PRES   REMARKS
BEAUFORT       CLEAR     78  78 100 NE5       29.91S
CEDAR ISLAND     N/A     79 N/A N/A E3        29.97R
JACKSONVILLE   CLEAR     73  70  90 CALM      29.92S
PINEY ISLAND   SUNNY    N/A N/A N/A MISG      29.91S
WILMINGTON     CLEAR     72  70  93 N5        29.93S


$$

NCZ011>013-027>030-043-044-078>080-089-090>093-098-301100-
COASTAL PLAIN

CITY           SKY/WX    TMP DP  RH WIND       PRES   REMARKS
AHOSKIE        CLEAR     68  67  96 CALM      29.96S
CLINTON        CLEAR     72  72  99 CALM      29.95S
ELIZABETHTOWN  CLEAR     72  72 100 CALM      29.95R
GOLDSBORO      CLEAR     73  72  95 W2        29.94R
GREENVILLE     CLEAR     70  70 100 CALM      29.97R FOG
HAVELOCK       CLEAR     76  75  97 CALM      29.92S
KENANSVILLE    CLEAR     70  69  96 NW5       29.96R
KINSTON        CLEAR     69  68  97 NW3       29.95S
NEW BERN       PTCLDY    75  72  90 CALM      29.94R
RICHLANDS      CLEAR     70  64  83 CALM      29.94S
ROCKY MOUNT    CLEAR     70  69  97 CALM      29.95F
WASHINGTON     CLEAR     70  69  98 CALM      29.95R
WHITEVILLE     CLEAR     71  70  95 CALM      29.94R

$$

AMZ130-135-150-152-154-156-158-170-250-252-270-ANZ085-086-088-633-658-670-301100-
MARINE OBSERVATIONS

STATION/POSITION TIME  TEMP    WIND        PRES    WAVE   SWELL
                       AIR SEA DIR/SP/G            HT/PER HT/PER
                 (UTC) (F)     (DEG/KT/KT) (MB)    (FT/S) (FT/S)
CHESAPEAKE LIGHT 1000   79     150/  9/ 10 1014.9
64 E VA BEACH    0950   81 81  100/  6/  8 1014.0    3/ 5   3/ 5
DUCK             0900   78 68                N/A
2 E DUCK         0911      73                N/A     2/10
OREGON INLET     0900   79 79                N/A
13E OREGON INLT  1000      80                N/A     3/ 6
HATTERAS CG      0900   80 83                N/A
DIAMOND BUOY     0950   84 85  180/ 14/ 16 1013.2    3/ 9   2/ 9
CAPE LOOKOUT     1000   81     130/  8/  8 1012.5
BEAUFORT LAB     0900   78 82                N/A
30 SE NEW RVR IN NOT AVBL
27 SE WRIGHTSVLE 1000   76 82   20/  8/ 10   N/A
5 SE WRIGHTSVLE  0908   79 82   30/ 10/ 12 1012.9
225 S CAPE HAT   0950   83 81  190/ 17/ 21 1014.4    7/ 8
41 SE CHARLESTON 0950   82 84   10/ 10/ 12 1012.0    3/ 5   3/ 5

$$



USA.gov is the U.S. government's official web portal to all federal, state and local government web resources and services.